Regional Weather Roundup
Issued by NWS

Home | Current Version | Previous Version | Text Only | Print | Product List | Glossary On
Versions: 1 2 3 4 5 6 7 8 9 10 11 12 13 14 15 16 17 18 19 20 21 22 23 24 25 26 27 28 29 30 31 32 33 34 35 36 37 38 39 40 41 42 43 44 45 46 47 48 49 50
000
ASUS45 KABQ 210910
RWRNM
NEW MEXICO REGIONAL WEATHER ROUNDUP
NATIONAL WEATHER SERVICE ALBUQUERQUE NM
200 AM MST SUN JAN 21 2018

NOTE: "FAIR" MEANS FEW OR NO CLOUDS BELOW 12,000 FEET AGL WITH NO
       SIGNIFICANT WEATHER OR OBSTRUCTIONS TO VISION.

      THIS PRODUCT IS RELEASED AS TWO VERSIONS.  ONE VERSION NEAR
      THE TOP OF THE HOUR CONTAINING PRELIMINARY DATA FROM ALBUQUERQUE
      AND OTHER STATIONS.  A FINAL VERSION WITH ADDITIONAL DATA IS
      ISSUED ABOUT 10 MINUTES AFTER THE HOUR.

NMZ501-503-504-510>518-211000-
NORTHWEST PLATEAU/NORTHCENTRAL MOUNTAINS

CITY           SKY/WX    TMP DP  RH WIND       PRES   REMARKS
FARMINGTON     MOCLDY    30  30 100 SW3       29.78S
LOS ALAMOS     CLOUDY    31  20  62 SW12      29.80R WCI  22
SANTA FE       FLURRIES  29  29 100 SE7       29.82F WCI  22
TAOS           SNOW      28  27  93 SW8       29.85R VSB 1/2 WCI  20
ANGEL FIRE     LGT SNOW  25  22  89 W25G35    29.77R VSB 3/4 WCI  10

$$
NMZ402-403-502-505>509-211000-
WESTCENTRAL MOUNTAINS/SOUTHWEST MOUNTAINS

CITY           SKY/WX    TMP DP  RH WIND       PRES   REMARKS
GALLUP         SNOW      26  25  96 SW13      29.81F VSB 1/2 WCI  15
GRANTS         FAIR      28  17  65 SW15G24   29.85S WCI  16
SILVER CITY    FAIR      33  26  77 W25G35    29.94R WCI  19

$$
NMZ407-409-411-412-211000-
SOUTHERN DESERTS

CITY           SKY/WX    TMP DP  RH WIND       PRES   REMARKS
DEMING         MOCLDY    41  25  53 W18G26    29.94R
LAS CRUCES     CLOUDY    44  28  52 W22       29.94R
HOLLOMAN AFB   MOCLDY    50  33  51 SW21      29.89R
ALAMOGORDO     FAIR      50  32  50 W16G24    29.87R
T OR C         FAIR      44  22  41 W14G22    29.87R

$$
NMZ519>523-211000-
CENTRAL VALLEYS/CENTRAL HIGHLANDS

CITY           SKY/WX    TMP DP  RH WIND       PRES   REMARKS
ALBUQUERQUE    FAIR      34  31  88 SE8       29.86F WCI  27
MORIARTY ARPT  MIX PCPN  33  30  89 W8        29.85F WCI  26
CLINES CORNERS LGT SNOW  28  25  88 W28G41    29.80R FOG     WCI  13
BELEN          MOCLDY    32  31  96 E3        29.88R
SOCORRO        MOCLDY    41  21  44 W10G17    29.85R

$$
NMZ524>526-539-540-211000-
SOUTHCENTRAL MOUNTAINS

CITY           SKY/WX    TMP DP  RH WIND       PRES   REMARKS
RUIDOSO        CLOUDY    39  28  65 W22G33    29.84R WCI  29

$$
NMZ527>531-211000-
NORTHEAST HIGHLANDS/NORTHEAST PLAINS

CITY           SKY/WX    TMP DP  RH WIND       PRES   REMARKS
LAS VEGAS      MOCLDY    36  29  75 SW25G37   29.73S WCI  24
RATON          FAIR      33  16  49 W6        29.66F WCI  28
CLAYTON        FAIR      39  17  41 SW8       29.67F WCI  33

$$
NMZ532>537-211000-
EASTCENTRAL PLAINS

CITY           SKY/WX    TMP DP  RH WIND       PRES   REMARKS
TUCUMCARI      FAIR      47  19  33 SW10      29.68F
CANNON AFB     FAIR      40  17  40 SW9       29.75F WCI  34
CLOVIS AIRPORT FAIR      42  19  39 SW12      29.75F

$$
NMZ028-029-538-211000-
SOUTHEAST PLAINS

CITY           SKY/WX    TMP DP  RH WIND       PRES   REMARKS
ROSWELL        FAIR      56  23  27 SW12      29.75S
ARTESIA        FAIR      54  23  30 SW13G18   29.78F
CARLSBAD       FAIR      37  18  46 CALM      29.77F
HOBBS          FAIR      37  23  56 W9        29.81R WCI  31


$$




USA.gov is the U.S. government's official web portal to all federal, state and local government web resources and services.